Date String (YYYY-MM-DD hh:mm:ss) UTC,Instrument flags,absolute air pressure of the measurement (hPa),sample flow rate (lpm),inlet stack bypass flow (lpm),air temperature of the measurement (°C),ambient temperature measured by the external sensor (°C),aerosol sample conditioner tube jacket temperature (°C),OPC LED temperature (°C),internal box temperature (°C),relative humidity of the measurement (%),span deviation,mass concentration of particles derived from Lorenz-Mie calculation of OPC scattering (μg/m³),mass concentration of particles derived from Lorenz-Mie calculation of OPC scattering (μg/m³),mass concentration of particles derived from Lorenz-Mie calculation of OPC scattering (μg/m³)
DateTimeUTC,F1_M11,P_M11,Q1_M11,Q2_M11,T1_M11,T2_M11,T3_M11,T4_M11,T5_M11,U1_M11,ZSPAN_M11,X0_M11,X2_M11,X1_M11
2024-02-12 04:00:00,SystemResetWarning,0829.1,5.00,000.00,018.3,017.8,000.0,027.0,020.2,11.6,0000.0,0004.73,0003.43,0003.27
2024-02-12 04:01:00,SystemResetWarning,0829.1,5.00,000.00,018.4,018.5,000.0,027.0,020.6,11.5,0000.0,0004.74,0003.44,0003.28
2024-02-12 04:02:00,SystemResetWarning,0829.1,5.00,000.00,018.6,018.9,000.0,027.0,020.8,11.3,0000.0,0004.74,0003.45,0003.29
2024-02-12 04:03:00,SystemResetWarning,0829.1,5.00,000.00,018.6,018.8,000.0,027.0,020.6,11.4,0000.0,0004.68,0003.44,0003.29
2024-02-12 04:04:00,SystemResetWarning,0829.1,4.99,000.00,018.6,018.6,000.0,026.9,020.4,11.3,0000.0,0004.55,0003.43,0003.29
2024-02-12 04:05:00,SystemResetWarning,0829.1,5.01,000.00,018.6,018.4,000.0,026.9,020.3,11.3,0000.0,0005.45,0003.41,0003.28
2024-02-12 04:06:00,SystemResetWarning,0829.1,5.01,000.00,018.5,018.2,000.0,026.8,020.2,11.3,0000.0,0006.33,0003.40,0003.27
2024-02-12 04:07:00,SystemResetWarning,0829.1,4.98,000.00,018.5,018.1,000.0,026.8,020.2,11.3,0000.0,0006.43,0003.42,0003.28
2024-02-12 04:08:00,SystemResetWarning,0829.1,4.99,000.00,018.5,018.0,000.0,026.8,020.1,11.4,0000.0,0006.53,0003.43,0003.28
2024-02-12 04:09:00,SystemResetWarning,0829.1,5.02,000.00,018.4,017.9,000.0,026.8,020.1,11.4,0000.0,0006.65,0003.45,0003.28
2024-02-12 04:10:00,SystemResetWarning,0829.1,5.00,000.00,018.4,017.8,000.0,026.8,020.0,11.4,0000.0,0006.65,0003.44,0003.27
2024-02-12 04:11:00,SystemResetWarning,0829.1,4.99,000.00,018.4,017.8,000.0,026.8,020.0,11.4,0000.0,0006.68,0003.45,0003.28
2024-02-12 04:12:00,SystemResetWarning,0829.1,4.99,000.00,018.4,017.7,000.0,026.8,020.0,11.4,0000.0,0006.92,0003.45,0003.27
2024-02-12 04:13:00,SystemResetWarning,0829.1,5.01,000.00,018.3,017.7,000.0,026.8,020.0,11.5,0000.0,0006.90,0003.43,0003.25
2024-02-12 04:14:00,SystemResetWarning,0829.1,5.00,000.00,018.3,017.7,000.0,026.8,020.0,11.5,0000.0,0006.94,0003.43,0003.25
2024-02-12 04:15:00,SystemResetWarning,0829.1,5.00,000.00,018.3,017.6,000.0,026.8,020.0,11.5,0000.0,0006.97,0003.44,0003.25
2024-02-12 04:16:00,SystemResetWarning,0829.1,5.00,000.00,018.3,017.6,000.0,026.8,020.0,11.5,0000.0,0006.26,0003.45,0003.27
2024-02-12 04:17:00,SystemResetWarning,0829.1,4.98,000.00,018.3,017.6,000.0,026.8,020.0,11.6,0000.0,0005.12,0003.46,0003.27
2024-02-12 04:18:00,SystemResetWarning,0829.1,5.00,000.00,018.3,017.6,000.0,026.8,020.0,11.5,0000.0,0004.97,0003.46,0003.27
2024-02-12 04:19:00,SystemResetWarning,0829.1,5.01,000.00,018.3,017.5,000.0,026.9,020.0,11.5,0000.0,0004.87,0003.45,0003.27
2024-02-12 04:20:00,SystemResetWarning,0829.1,5.01,000.00,018.2,017.5,000.0,026.9,020.0,11.5,0000.0,0004.72,0003.43,0003.27
2024-02-12 04:21:00,SystemResetWarning,0829.1,5.00,000.00,018.2,017.5,000.0,026.9,020.0,11.5,0000.0,0004.68,0003.43,0003.27
2024-02-12 04:22:00,SystemResetWarning,0829.1,5.00,000.00,018.2,017.5,000.0,026.9,020.0,11.4,0000.0,0004.70,0003.44,0003.28
2024-02-12 04:23:00,SystemResetWarning,0829.1,4.99,000.00,018.2,017.5,000.0,026.9,020.0,11.5,0000.0,0004.49,0003.45,0003.30
2024-02-12 04:24:00,SystemResetWarning,0829.1,5.02,000.00,018.2,017.4,000.0,026.9,020.0,11.5,0000.0,0004.76,0003.48,0003.32
2024-02-12 04:25:00,SystemResetWarning,0829.1,5.01,000.00,018.2,017.5,000.0,026.9,020.1,11.6,0000.0,0005.27,0003.50,0003.33
2024-02-12 04:26:00,SystemResetWarning,0829.1,5.00,000.00,018.4,018.2,000.0,027.0,020.4,11.5,0000.0,0005.30,0003.52,0003.34
2024-02-12 04:27:00,SystemResetWarning,0829.1,5.00,000.00,018.6,018.9,000.0,027.1,020.9,11.5,0000.0,0005.28,0003.51,0003.34
2024-02-12 04:28:00,SystemResetWarning,0829.1,4.99,000.00,018.7,019.0,000.0,027.0,020.8,11.5,0000.0,0005.48,0003.53,0003.34
2024-02-12 04:29:00,SystemResetWarning,0829.1,4.99,000.00,018.7,018.8,000.0,026.9,020.6,11.4,0000.0,0005.49,0003.52,0003.34
2024-02-12 04:30:00,SystemResetWarning,0829.1,5.01,000.00,018.6,018.6,000.0,026.9,020.3,11.4,0000.0,0005.58,0003.54,0003.34
2024-02-12 04:31:00,SystemResetWarning,0829.1,5.01,000.00,018.6,018.4,000.0,026.9,020.2,11.4,0000.0,0005.65,0003.55,0003.34
2024-02-12 04:32:00,SystemResetWarning,0829.1,4.99,000.00,018.5,018.2,000.0,026.8,020.1,11.5,0000.0,0007.46,0003.56,0003.35
2024-02-12 04:33:00,SystemResetWarning,0829.0,4.98,000.00,018.5,018.0,000.0,026.8,020.1,11.5,0000.0,0007.53,0003.57,0003.34
2024-02-12 04:34:00,SystemResetWarning,0829.0,5.01,000.00,018.5,017.9,000.0,026.8,020.0,11.6,0000.0,0007.54,0003.57,0003.34
2024-02-12 04:35:00,SystemResetWarning,0829.0,5.01,000.00,018.4,017.8,000.0,026.8,020.0,11.6,0000.0,0007.42,0003.54,0003.33
2024-02-12 04:36:00,SystemResetWarning,0829.0,5.00,000.00,018.4,017.7,000.0,026.8,020.0,11.6,0000.0,0006.99,0003.53,0003.33
2024-02-12 04:37:00,SystemResetWarning,0828.9,4.99,000.00,018.4,017.7,000.0,026.8,020.0,11.7,0000.0,0006.94,0003.49,0003.32
2024-02-12 04:38:00,SystemResetWarning,0828.9,4.99,000.00,018.3,017.6,000.0,026.8,020.0,11.6,0000.0,0007.03,0003.49,0003.31
2024-02-12 04:39:00,SystemResetWarning,0829.0,5.01,000.00,018.3,017.6,000.0,026.9,020.0,11.5,0000.0,0006.82,0003.46,0003.30
2024-02-12 04:40:00,SystemResetWarning,0829.0,5.01,000.00,018.3,017.6,000.0,026.9,020.0,11.6,0000.0,0006.66,0003.44,0003.29
2024-02-12 04:41:00,SystemResetWarning,0828.9,5.00,000.00,018.3,017.5,000.0,026.9,020.0,11.7,0000.0,0006.62,0003.43,0003.29
2024-02-12 04:42:00,SystemResetWarning,0828.9,5.01,000.00,018.3,017.5,000.0,026.9,020.0,11.8,0000.0,0006.53,0003.40,0003.28
2024-02-12 04:43:00,SystemResetWarning,0829.0,5.00,000.00,018.3,017.5,000.0,026.9,020.0,11.5,0000.0,0004.73,0003.39,0003.28
2024-02-12 04:44:00,SystemResetWarning,0828.9,5.00,000.00,018.3,017.5,000.0,026.9,020.0,11.4,0000.0,0004.35,0003.36,0003.26
2024-02-12 04:45:00,SystemResetWarning,0829.0,5.00,000.00,018.3,017.5,000.0,026.9,020.0,11.4,0000.0,0004.39,0003.34,0003.24
2024-02-12 04:46:00,SystemResetWarning,0828.9,5.00,000.00,018.2,017.4,000.0,026.9,020.0,11.4,0000.0,0004.35,0003.33,0003.24
2024-02-12 04:47:00,SystemResetWarning,0829.0,5.00,000.00,018.2,017.4,000.0,026.9,020.0,11.5,0000.0,0004.27,0003.32,0003.24
2024-02-12 04:48:00,SystemResetWarning,0829.0,5.00,000.00,018.3,017.6,000.0,026.9,020.1,11.4,0000.0,0004.33,0003.34,0003.24
2024-02-12 04:49:00,SystemResetWarning,0828.9,5.01,000.00,018.4,018.3,000.0,027.0,020.5,11.4,0000.0,0004.25,0003.33,0003.23
2024-02-12 04:50:00,SystemResetWarning,0828.9,5.00,000.00,018.6,019.0,000.0,027.1,020.9,11.3,0000.0,0004.26,0003.32,0003.21
2024-02-12 04:51:00,SystemResetWarning,0828.9,5.00,000.00,018.8,019.1,000.0,027.0,020.8,11.1,0000.0,0004.26,0003.31,0003.20
2024-02-12 04:52:00,SystemResetWarning,0829.0,4.99,000.00,018.7,018.9,000.0,027.0,020.6,11.1,0000.0,0004.88,0003.30,0003.19
2024-02-12 04:53:00,SystemResetWarning,0829.0,5.00,000.00,018.7,018.6,000.0,026.9,020.3,11.1,0000.0,0005.15,0003.31,0003.18
2024-02-12 04:54:00,SystemResetWarning,0829.0,5.00,000.00,018.6,018.4,000.0,026.9,020.2,11.2,0000.0,0005.11,0003.29,0003.17
2024-02-12 04:55:00,SystemResetWarning,0829.0,5.00,000.00,018.6,018.2,000.0,026.9,020.1,11.2,0000.0,0005.22,0003.29,0003.16
2024-02-12 04:56:00,SystemResetWarning,0829.0,5.00,000.00,018.5,018.1,000.0,026.8,020.1,11.2,0000.0,0005.08,0003.27,0003.16
2024-02-12 04:57:00,SystemResetWarning,0829.0,5.01,000.00,018.5,018.0,000.0,026.8,020.0,11.3,0000.0,0005.17,0003.29,0003.14
2024-02-12 04:58:00,SystemResetWarning,0828.9,5.00,000.00,018.4,017.9,000.0,026.8,020.0,11.3,0000.0,0005.22,0003.29,0003.13
2024-02-12 04:59:00,SystemResetWarning,0828.9,5.00,000.00,018.4,017.8,000.0,026.8,020.0,11.3,0000.0,0005.06,0003.25,0003.11
